Location: Bethera
(33.2010°N, 79.7880°W)
Time: 22:05:22
(UTC-04:00)

Amateur Radio Satellites - All Passes

Search period start: 27 April 2015 21:35
Search period end: 28 April 2015 21:35
Location: Bethera, 33.2010°N, 79.7880°W

Satellite Date Start Highest point End Downlink Frequencies (MHz)
Time Altitude Azimuth
CINEMA 3 27 Apr 21:35:54 21:40:02 47° 74° (ENE) 21:44:24 145.822/145.860
DELFI C3 27 Apr 21:37:16 21:40:13 20° 72° (ENE) 21:43:17 145.870
O/OREOS (USA 219) 27 Apr 21:39:56 21:43:42 27° 103° (ESE) 21:47:34 437.305
UWE-3 27 Apr 21:42:07 21:45:26 22° 71° (ENE) 21:48:58 435.000/436.395/437.385
FUNcube-1 27 Apr 21:45:55 21:48:55 19° 70° (ENE) 21:52:06 145.935
UKube-1 27 Apr 21:49:23 21:50:44 12° 68° (ENE) 21:52:20 .
PHONESAT 2.4 27 Apr 21:49:30 21:53:01 51° 21° (NNE) 21:56:31 2401.200-2431.200
HO-68 27 Apr 21:57:19 22:04:15 49° 260° (W) 22:11:10 435.675
SO-50 27 Apr 22:00:19 22:04:26 26° 249° (WSW) 22:08:23 436.795
SEEDS 27 Apr 22:04:10 22:08:07 36° 262° (W) 22:12:04 437.485
Oscar 11 27 Apr 22:04:52 22:09:10 64° 76° (ENE) 22:13:30 145.826/435.025
ZACube-1 27 Apr 22:11:09 22:15:09 38° 74° (ENE) 22:19:17 437.345
AAUSAT CUBESAT 2 27 Apr 22:15:41 22:19:38 38° 262° (W) 22:23:35 437.432
50 SAT 27 Apr 22:16:29 22:16:42 10° 68° (ENE) 22:17:09 437.505
CANX-2 27 Apr 22:17:29 22:20:40 19° 267° (W) 22:23:43 2200.000
RS-15 27 Apr 22:23:03 22:32:29 29° 42° (NE) 22:42:36 29.354- 29.394
GOMX 1 27 Apr 22:23:04 22:25:18 14° 269° (W) 22:27:22 467.674
VELOX 1 27 Apr 22:24:54 22:27:09 14° 69° (ENE) 22:29:37 145.980
CUTE 1.7 + AOD 2 27 Apr 22:26:36 22:29:30 17° 267° (W) 22:32:14 437.475
VERMONT LUNAR 27 Apr 22:36:34 22:39:17 22° 216° (SW) 22:41:57 437.305
Cosmos 2491 27 Apr 22:37:28 22:45:33 46° 90° (E) 22:53:48 435.465 / 435.565
AISAT 27 Apr 22:42:25 22:45:53 24° 71° (ENE) 22:49:26 437.250
DX 1 27 Apr 22:42:32 22:46:44 55° 75° (ENE) 22:50:59 434.975-435.025
DOVE 4 27 Apr 22:49:27 22:50:42 11° 271° (W) 22:51:39 437.250
YUBILEINY 27 Apr 22:52:27 23:01:14 86° 264° (W) 23:09:56 435.215
CUBEBUG 2 27 Apr 22:56:34 23:00:36 36° 263° (W) 23:04:45 437.445
ANTELSAT 27 Apr 23:03:48 23:07:18 21° 93° (E) 23:10:53 437.575/2403.000
DELFI C3 27 Apr 23:11:51 23:15:14 24° 265° (W) 23:18:33 145.870
QB50P2 27 Apr 23:11:55 23:12:19 10° 90° (E) 23:13:02 145.880/145.840
CINEMA 3 27 Apr 23:16:01 23:17:40 12° 271° (W) 23:19:02 145.822/145.860
UWE-3 27 Apr 23:18:12 23:21:52 26° 265° (W) 23:25:35 435.000/436.395/437.385
O/OREOS (USA 219) 27 Apr 23:19:24 23:23:07 23° 298° (WNW) 23:26:43 437.305
FUNcube-1 27 Apr 23:21:13 23:25:04 30° 264° (W) 23:28:57 145.935
UKube-1 27 Apr 23:22:18 23:26:30 50° 260° (W) 23:30:42 .
HUMSAT D 27 Apr 23:23:06 23:27:17 61° 260° (W) 23:31:32 437.325/437.525
NANOSAT C BR1 27 Apr 23:26:25 23:28:59 16° 93° (E) 23:31:44 145.865
PHONESAT 2.4 27 Apr 23:28:00 23:31:09 29° 214° (SW) 23:34:16 2401.200-2431.200
ESTCUBE 1 27 Apr 23:28:43 23:32:57 42° 74° (ENE) 23:37:12 437.505/2401.250
POPSAT HIP 1 27 Apr 23:30:26 23:33:20 18° 94° (E) 23:36:22 437.405
BUGSAT 1 27 Apr 23:42:36 23:45:12 17° 93° (E) 23:47:59 437.445
50 SAT 27 Apr 23:47:14 23:51:06 49° 261° (W) 23:55:01 437.505
ZACube-1 27 Apr 23:49:12 23:51:44 15° 269° (W) 23:54:06 437.345
TIGRISAT 27 Apr 23:51:57 23:56:39 76° 101° (ESE) 00:01:15 435.000
UNISAT 6 27 Apr 23:57:20 00:02:03 90° 284° (WNW) 00:06:39 437.425
CUBEBUG 1 27 Apr 23:57:23 00:01:42 81° 77° (ENE) 00:06:02 437.445
DUCHIFAT 1 27 Apr 23:58:26 00:02:27 39° 98° (E) 00:06:28 145.980
Cosmos 2504 27 Apr 23:59:09 00:04:30 21° 68° (ENE) 00:09:59 435.465 / 435.565
VELOX 1 27 Apr 23:59:15 00:03:24 41° 261° (W) 00:07:34 145.980
POLYITAN 1 28 Apr 00:00:20 00:04:27 43° 99° (E) 00:08:35 437.675
QB50P1 28 Apr 00:17:18 00:21:36 71° 101° (E) 00:25:53 145.935-145.965
AISAT 28 Apr 00:18:49 00:22:25 24° 265° (W) 00:25:56 437.250
AIST 1 28 Apr 00:20:14 00:23:39 24° 91° (E) 00:27:09
TISAT 1 28 Apr 00:29:16 00:32:59 33° 73° (ENE) 00:36:48 437.305
RS-15 28 Apr 00:34:38 00:46:21 81° 244° (WSW) 00:58:29 29.354- 29.394
Cosmos 2491 28 Apr 00:34:57 00:42:39 33° 287° (WNW) 00:50:11 435.465 / 435.565
ANTELSAT 28 Apr 00:40:00 00:44:07 30° 288° (WNW) 00:48:05 437.575/2403.000
JUGNU 28 Apr 00:43:44 00:47:39 18° 170° (S) 00:51:36 437.505
QB50P2 28 Apr 00:44:23 00:48:35 51° 285° (WNW) 00:52:45 145.880/145.840
YUBILEINY 28 Apr 00:53:13 00:57:00 13° 279° (W) 01:00:01 435.215
SRMSAT 28 Apr 01:00:19 01:01:44 11° 164° (SSE) 01:03:18 437.500
NANOSAT C BR1 28 Apr 01:01:03 01:04:57 33° 287° (WNW) 01:08:47 145.865
POPSAT HIP 1 28 Apr 01:05:29 01:09:16 30° 287° (WNW) 01:12:59 437.405
ESTCUBE 1 28 Apr 01:07:34 01:10:03 14° 268° (W) 01:12:19 437.505/2401.250
SPROUT 28 Apr 01:08:38 01:12:50 58° 260° (W) 01:17:03 437.525
BUGSAT 1 28 Apr 01:17:03 01:20:46 31° 287° (WNW) 01:24:27 437.445
Oscar 19 28 Apr 01:28:53 01:30:04 11° 89° (E) 01:31:40 437.125/150
DUCHIFAT 1 28 Apr 01:35:31 01:37:58 15° 291° (WNW) 01:40:13 145.980
POLYITAN 1 28 Apr 01:37:51 01:40:02 13° 291° (WNW) 01:42:01 437.675
ITUPSAT 1 28 Apr 01:43:28 01:47:47 35° 72° (ENE) 01:52:09 437.325
Cosmos 2504 28 Apr 01:50:58 01:58:40 61° 268° (W) 02:05:49 435.465 / 435.565
AIST 1 28 Apr 01:58:00 02:01:17 20° 285° (WNW) 02:04:26
TISAT 1 28 Apr 02:06:23 02:08:55 15° 267° (W) 02:11:17 437.305
BEESAT 28 Apr 02:12:10 02:16:56 76° 76° (ENE) 02:21:44 436.000
SWISSCUBE 28 Apr 02:15:06 02:19:53 89° 98° (E) 02:24:42 437.505
AIST 2 28 Apr 02:25:14 02:27:50 16° 110° (ESE) 02:30:36 435.215
JUGNU 28 Apr 02:31:35 02:36:05 22° 180° (S) 02:40:34 437.505
BEESAT 3 28 Apr 02:41:01 02:45:03 68° 299° (WNW) 02:49:09 437.485
BEESAT 2 28 Apr 02:45:38 02:49:43 75° 299° (WNW) 02:53:52 435.950
SRMSAT 28 Apr 02:46:11 02:50:17 19° 172° (S) 02:54:24 437.500
RS-15 28 Apr 02:51:03 02:57:38 15° 258° (WSW) 03:03:10 29.354- 29.394
Gurwin Techsat 1B 28 Apr 02:51:12 02:55:00 21° 93° (E) 02:59:00 435.225
DANDE 28 Apr 02:59:00 03:00:19 11° 63° (ENE) 03:02:27 436.750
KKS-1 28 Apr 03:03:53 03:08:04 45° 74° (ENE) 03:12:20 437.445
Oscar 19 28 Apr 03:04:48 03:09:59 68° 285° (WNW) 03:15:08 437.125/150
GONETS M04 28 Apr 03:16:05 03:23:28 30° 72° (ENE) 03:31:04
ITUPSAT 1 28 Apr 03:22:19 03:25:47 19° 266° (W) 03:29:06 437.325
CUSAT 1 28 Apr 03:41:35 03:48:29 32° 73° (ENE) 03:55:48 437.405
ITAMSAT 1 28 Apr 03:45:02 03:50:15 86° 101° (E) 03:55:27 435.822/435.867
HORYU 2 28 Apr 03:47:10 03:48:23 11° 91° (E) 03:49:55 437.375
STARS 28 Apr 03:52:04 03:56:26 79° 258° (WSW) 04:00:51 437.465
AIST 2 28 Apr 04:02:13 04:06:10 36° 304° (WNW) 04:10:07 435.215
JUGNU 28 Apr 04:20:35 04:24:30 18° 190° (S) 04:28:19 437.505
Gurwin Techsat 1B 28 Apr 04:30:13 04:35:09 39° 288° (WNW) 04:40:02 435.225
SRMSAT 28 Apr 04:34:25 04:38:51 22° 182° (S) 04:43:16 437.500
DANDE 28 Apr 04:37:03 04:44:57 64° 80° (E) 04:53:29 436.750
KKS-1 28 Apr 04:42:55 04:45:01 13° 269° (W) 04:46:50 437.445
AO-7 28 Apr 05:00:39 05:08:42 52° 102° (ESE) 05:16:47 29.400- 29.500
GONETS M04 28 Apr 05:12:12 05:20:40 50° 270° (W) 05:28:58
HORYU 2 28 Apr 05:21:02 05:25:25 51° 285° (WNW) 05:29:44 437.375
M-CUBED/EXP-1 PRIME 28 Apr 05:23:42 05:24:59 11° 62° (ENE) 05:26:35 437.505
CUSAT 1 28 Apr 05:23:42 05:31:27 51° 267° (W) 05:39:19 437.405
MOZHAYETS 4 28 Apr 05:25:38 05:30:17 78° 260° (W) 05:34:57
JAS-2 28 Apr 05:35:13 05:41:18 77° 285° (WNW) 05:46:43 435.910
AUBIESAT-1 28 Apr 06:00:48 06:04:37 25° 66° (ENE) 06:08:33 437.475
Cosmos 2499 28 Apr 06:04:14 06:11:44 62° 80° (E) 06:18:48 435.465 / 435.565
DANDE 28 Apr 06:21:27 06:27:54 25° 271° (W) 06:34:17 436.750
SRMSAT 28 Apr 06:23:52 06:27:24 16° 192° (SSW) 06:30:53 437.500
PRISM 28 Apr 06:34:10 06:37:20 22° 71° (ENE) 06:40:34 437.425
STRAND 1 28 Apr 06:44:16 06:48:22 25° 70° (ENE) 06:52:33 437.568
AO-7 28 Apr 06:54:05 07:01:11 31° 297° (WNW) 07:08:04 29.400- 29.500
M-CUBED/EXP-1 PRIME 28 Apr 06:54:30 06:59:17 75° 255° (WSW) 07:04:08 437.505
CUTE-I 28 Apr 06:54:52 06:59:25 29° 96° (E) 07:04:02 437.470
Cubesat XI-IV 28 Apr 07:05:04 07:09:58 37° 98° (E) 07:14:54 437.490
CUBESAT XI-V 28 Apr 07:09:44 07:14:22 80° 258° (WSW) 07:19:00 437.345
AUBIESAT-1 28 Apr 07:35:01 07:39:14 31° 259° (W) 07:43:26 437.475
O/OREOS (USA 219) 28 Apr 07:53:55 07:57:37 25° 63° (ENE) 08:01:22 437.305
Cosmos 2499 28 Apr 07:59:14 08:04:12 18° 276° (W) 08:08:34 435.465 / 435.565
PRISM 28 Apr 08:09:18 08:12:42 23° 264° (W) 08:16:01 437.425
PCSat 28 Apr 08:10:43 08:16:08 84° 112° (ESE) 08:21:35 145.827
STRAND 1 28 Apr 08:22:57 08:27:28 30° 264° (W) 08:31:54 437.568
CUTE-I 28 Apr 08:34:54 08:39:26 28° 290° (WNW) 08:43:52 437.470
Cubesat XI-IV 28 Apr 08:45:44 08:49:52 23° 291° (WNW) 08:53:51 437.490
GOMX 1 28 Apr 08:48:47 08:52:31 20° 93° (E) 08:56:33 467.674
Cosmos 2491 28 Apr 08:54:34 08:59:47 18° 66° (ENE) 09:05:33 435.465 / 435.565
DOVE 4 28 Apr 09:11:39 09:15:37 22° 93° (E) 09:19:47 437.250
BRITE-PL 28 Apr 09:14:24 09:19:37 57° 100° (E) 09:25:08 437.365/2234.400
COMPASS 1 28 Apr 09:23:45 09:26:20 16° 93° (E) 09:29:04 437.405
HO-68 28 Apr 09:29:35 09:36:16 42° 99° (E) 09:42:59 435.675
O/OREOS (USA 219) 28 Apr 09:33:24 09:36:56 23° 257° (WSW) 09:40:21 437.305
CINEMA 3 28 Apr 09:35:41 09:39:04 19° 92° (E) 09:42:39 145.822/145.860
SEEDS 28 Apr 09:52:33 09:56:39 48° 99° (E) 10:00:43 437.485
YUBILEINY 28 Apr 09:54:11 10:00:08 22° 84° (E) 10:06:31 435.215
Oscar 11 28 Apr 09:57:48 10:00:24 16° 92° (E) 10:03:11 145.826/435.025
PCSat 28 Apr 09:57:56 10:00:20 12° 313° (NW) 10:02:28 145.827
ANTELSAT 28 Apr 10:00:28 10:02:08 12° 67° (ENE) 10:04:04 437.575/2403.000
AAUSAT CUBESAT 2 28 Apr 10:02:49 10:06:47 43° 98° (E) 10:10:45 437.432
CANX-2 28 Apr 10:05:43 10:10:00 81° 283° (WNW) 10:14:14 2200.000
ZACube-1 28 Apr 10:06:34 10:07:38 11° 89° (E) 10:09:01 437.345
CUTE 1.7 + AOD 2 28 Apr 10:14:26 10:18:42 71° 283° (WNW) 10:22:53 437.475
GOMX 1 28 Apr 10:25:47 10:30:47 43° 286° (WNW) 10:35:54 467.674
SO-50 28 Apr 10:30:28 10:34:09 25° 111° (ESE) 10:38:00 436.795
DX 1 28 Apr 10:36:48 10:38:49 13° 92° (E) 10:41:04 434.975-435.025
ISS 28 Apr 10:40:32 10:43:39 48° 133° (SE) 10:46:48 145.825
TIGRISAT 28 Apr 10:46:29 10:50:40 39° 73° (ENE) 10:54:59 435.000
DUCHIFAT 1 28 Apr 10:47:54 10:50:35 17° 70° (ENE) 10:53:26 145.980
DOVE 4 28 Apr 10:48:38 10:53:26 37° 287° (WNW) 10:58:16 437.250
Cosmos 2491 28 Apr 10:48:58 10:57:51 81° 265° (W) 11:06:40 435.465 / 435.565
POLYITAN 1 28 Apr 10:50:13 10:53:11 19° 71° (ENE) 10:56:18 437.675
CUBEBUG 2 28 Apr 10:51:23 10:56:08 64° 100° (E) 11:00:49 437.445
UNISAT 6 28 Apr 10:51:58 10:56:17 47° 74° (ENE) 11:00:45 437.425
BRITE-PL 28 Apr 10:54:32 10:57:48 16° 291° (WNW) 11:00:55 437.365/2234.400
DELFI C3 28 Apr 10:54:43 10:58:42 59° 100° (E) 11:02:39 145.870
COMPASS 1 28 Apr 10:58:24 11:02:08 30° 287° (WNW) 11:05:45 437.405
BEESAT 3 28 Apr 11:04:30 11:07:29 20° 52° (NE) 11:10:31 437.485
QB50P1 28 Apr 11:06:18 11:09:56 29° 73° (ENE) 11:13:38 145.935-145.965
BEESAT 2 28 Apr 11:09:45 11:12:38 19° 51° (NE) 11:15:36 435.950
UWE-3 28 Apr 11:11:24 11:16:07 87° 102° (ESE) 11:20:45 435.000/436.395/437.385
CINEMA 3 28 Apr 11:11:43 11:16:26 40° 286° (WNW) 11:21:04 145.822/145.860
HUMSAT D 28 Apr 11:11:51 11:15:37 29° 96° (E) 11:19:23 437.325/437.525
FUNcube-1 28 Apr 11:13:12 11:17:48 70° 101° (E) 11:22:19 145.935
UKube-1 28 Apr 11:14:07 11:18:05 35° 98° (E) 11:22:05 .
HO-68 28 Apr 11:17:36 11:23:51 32° 293° (WNW) 11:29:54 435.675
ESTCUBE 1 28 Apr 11:27:38 11:29:18 12° 91° (E) 11:31:15 437.505/2401.250
50 SAT 28 Apr 11:28:54 11:32:16 26° 96° (E) 11:35:39 437.505
SEEDS 28 Apr 11:30:37 11:32:04 11° 292° (WNW) 11:33:16 437.485
Oscar 11 28 Apr 11:32:47 11:36:43 34° 287° (WNW) 11:40:35 145.826/435.025
QB50P2 28 Apr 11:32:52 11:37:02 66° 77° (ENE) 11:41:16 145.880/145.840
ANTELSAT 28 Apr 11:34:02 11:38:27 55° 260° (W) 11:43:01 437.575/2403.000
ZACube-1 28 Apr 11:39:53 11:44:25 55° 285° (WNW) 11:48:51 437.345
AAUSAT CUBESAT 2 28 Apr 11:40:15 11:42:04 12° 291° (WNW) 11:43:40 437.432
YUBILEINY 28 Apr 11:47:31 11:56:18 67° 279° (W) 12:05:04 435.215
NANOSAT C BR1 28 Apr 11:48:53 11:53:04 80° 257° (WSW) 11:57:19 145.865
CUBEBUG 1 28 Apr 11:51:16 11:54:29 21° 94° (E) 11:57:51 437.445
POPSAT HIP 1 28 Apr 11:53:28 11:57:39 69° 259° (WSW) 12:01:53 437.405
VELOX 1 28 Apr 11:53:42 11:58:01 49° 100° (E) 12:02:21 145.980
BUGSAT 1 28 Apr 12:02:29 12:06:30 80° 258° (WSW) 12:10:32 437.445
AIST 1 28 Apr 12:08:10 12:12:24 61° 82° (E) 12:16:38
SO-50 28 Apr 12:10:28 12:14:34 30° 307° (NW) 12:18:45 436.795
DX 1 28 Apr 12:11:10 12:15:18 41° 286° (WNW) 12:19:24 434.975-435.025
AISAT 28 Apr 12:12:39 12:17:09 88° 92° (E) 12:21:39 437.250
ISS 28 Apr 12:18:11 12:20:14 15° 329° (NNW) 12:22:13 145.825
DUCHIFAT 1 28 Apr 12:22:29 12:26:12 30° 263° (W) 12:29:55 145.980
TIGRISAT 28 Apr 12:24:50 12:27:38 16° 269° (W) 12:30:16 435.000
POLYITAN 1 28 Apr 12:25:20 12:28:57 27° 264° (W) 12:32:33 437.675
AIST 2 28 Apr 12:27:44 12:31:42 39° 57° (ENE) 12:35:37 435.215
CUBEBUG 2 28 Apr 12:30:42 12:32:19 11° 293° (WNW) 12:33:38 437.445
UNISAT 6 28 Apr 12:31:12 12:33:25 13° 270° (W) 12:35:22 437.425
Cosmos 2504 28 Apr 12:31:37 12:37:41 22° 84° (E) 12:44:08 435.465 / 435.565
BEESAT 3 28 Apr 12:41:58 12:45:32 29° 247° (WSW) 12:48:59 437.485
Oscar 19 28 Apr 12:42:08 12:43:36 11° 65° (ENE) 12:45:24 437.125/150
QB50P1 28 Apr 12:42:59 12:45:53 17° 267° (W) 12:48:38 145.935-145.965
RS-15 28 Apr 12:44:55 12:51:55 21° 104° (ESE) 12:59:39 29.354- 29.394
BEESAT 2 28 Apr 12:47:10 12:50:50 31° 247° (WSW) 12:54:23 435.950
HUMSAT D 28 Apr 12:48:04 12:51:11 19° 289° (WNW) 12:54:10 437.325/437.525
Cosmos 2491 28 Apr 12:50:24 12:53:36 12° 280° (W) 12:55:56 435.465 / 435.565
UKube-1 28 Apr 12:51:13 12:53:59 16° 291° (WNW) 12:56:34 .
SPROUT 28 Apr 12:59:43 13:03:36 32° 97° (E) 13:07:31 437.525
ESTCUBE 1 28 Apr 13:02:11 13:06:30 47° 286° (WNW) 13:10:47 437.505/2401.250
50 SAT 28 Apr 13:04:04 13:06:54 18° 289° (WNW) 13:09:36 437.505
CUBEBUG 1 28 Apr 13:27:07 13:30:52 27° 288° (WNW) 13:34:32 437.445
VELOX 1 28 Apr 13:32:13 13:34:12 13° 292° (WNW) 13:35:58 145.980
ITUPSAT 1 28 Apr 13:50:10 13:52:01 12° 91° (E) 13:54:11 437.325
TISAT 1 28 Apr 13:53:04 13:57:20 71° 283° (WNW) 14:01:34 437.305
AIST 2 28 Apr 14:07:37 14:09:57 14° 250° (WSW) 14:12:06 435.215
Gurwin Techsat 1B 28 Apr 14:08:22 14:12:19 22° 69° (ENE) 14:16:26 435.225
BEESAT 28 Apr 14:17:15 14:21:14 27° 96° (E) 14:25:17 436.000
Oscar 19 28 Apr 14:17:17 14:22:25 72° 257° (WSW) 14:27:37 437.125/150
SWISSCUBE 28 Apr 14:20:07 14:24:20 32° 97° (E) 14:28:35 437.505
Cosmos 2504 28 Apr 14:21:37 14:30:28 68° 279° (W) 14:39:12 435.465 / 435.565
SPROUT 28 Apr 14:36:32 14:39:29 17° 290° (WNW) 14:42:16 437.525
RS-15 28 Apr 14:52:20 15:03:15 80° 300° (WNW) 15:14:21 29.354- 29.394
ITAMSAT 1 28 Apr 14:58:46 15:03:56 85° 77° (ENE) 15:09:08 435.822/435.867
KKS-1 28 Apr 15:01:09 15:02:55 12° 91° (E) 15:04:56 437.445
VERMONT LUNAR 28 Apr 15:13:07 15:16:22 53° 150° (SSE) 15:19:40 437.305
ITUPSAT 1 28 Apr 15:25:40 15:30:17 52° 286° (WNW) 15:34:53 437.325
JAS-2 28 Apr 15:40:38 15:47:26 35° 69° (ENE) 15:54:10 435.910
STARS 28 Apr 15:46:33 15:50:15 26° 96° (E) 15:54:02 437.465
Gurwin Techsat 1B 28 Apr 15:47:11 15:52:06 37° 262° (W) 15:56:59 435.225
AO-7 28 Apr 15:54:59 16:02:47 49° 67° (ENE) 16:10:40 29.400- 29.500
BEESAT 28 Apr 15:55:06 15:59:00 25° 289° (WNW) 16:02:47 436.000
SWISSCUBE 28 Apr 15:58:24 16:02:01 21° 290° (WNW) 16:05:30 437.505
GONETS M04 28 Apr 16:11:30 16:19:19 40° 89° (E) 16:27:22
PHONESAT 2.4 28 Apr 16:12:46 16:16:13 52° 150° (SSE) 16:19:43 2401.200-2431.200
HORYU 2 28 Apr 16:14:43 16:19:12 85° 77° (ENE) 16:23:44 437.375
Cosmos 2504 28 Apr 16:23:53 16:25:46 10° 299° (WNW) 16:26:45 435.465 / 435.565
KKS-1 28 Apr 16:35:32 16:39:52 47° 286° (WNW) 16:44:09 437.445
CUSAT 1 28 Apr 16:47:02 16:49:47 21° 86° (E) 16:53:13 437.405
VERMONT LUNAR 28 Apr 16:50:49 16:53:55 33° 345° (NNW) 16:57:02 437.305
PCSat 28 Apr 17:03:23 17:07:58 28° 56° (NE) 17:12:37 145.827
RS-15 28 Apr 17:09:48 17:17:52 22° 325° (NW) 17:25:39 29.354- 29.394
ISS 28 Apr 17:12:40 17:13:40 11° 28° (NNE) 17:14:45 145.825
STARS 28 Apr 17:23:06 17:26:37 22° 289° (WNW) 17:30:00 437.465
JAS-2 28 Apr 17:24:48 17:32:16 45° 263° (W) 17:39:29 435.910
MOZHAYETS 4 28 Apr 17:25:24 17:29:33 34° 97° (E) 17:33:41
DANDE 28 Apr 17:46:46 17:50:02 87° 100° (E) 17:54:26 436.750
AO-7 28 Apr 17:48:35 17:55:49 32° 263° (W) 18:02:51 29.400- 29.500
PHONESAT 2.4 28 Apr 17:51:12 17:54:33 36° 345° (NNW) 17:57:54 2401.200-2431.200
GONETS M04 28 Apr 18:08:08 18:16:11 38° 285° (WNW) 18:24:09
CUTE-I 28 Apr 18:12:42 18:17:20 32° 71° (ENE) 18:22:03 437.470
Cubesat XI-IV 28 Apr 18:22:59 18:27:56 41° 72° (ENE) 18:32:55 437.490
VERMONT LUNAR 28 Apr 18:29:11 18:31:56 22° 2° (N) 18:34:41 437.305
CUSAT 1 28 Apr 18:29:37 18:32:28 19° 293° (WNW) 18:35:48 437.405
Cosmos 2499 28 Apr 18:33:24 18:42:02 60° 92° (E) 18:50:31 435.465 / 435.565
M-CUBED/EXP-1 PRIME 28 Apr 18:44:17 18:44:37 10° 93° (E) 18:45:14 437.505
PCSat 28 Apr 18:46:34 18:51:24 33° 251° (WSW) 18:56:09 145.827
ISS 28 Apr 18:47:12 18:50:28 86° 219° (SW) 18:53:41 145.825
STRAND 1 28 Apr 19:00:58 19:02:21 11° 90° (E) 19:04:09 437.568
MOZHAYETS 4 28 Apr 19:03:20 19:06:33 19° 290° (WNW) 19:09:36
SO-50 28 Apr 19:08:40 19:08:42 10° 42° (NE) 19:09:00 436.795
CUBESAT XI-V 28 Apr 19:10:57 19:15:08 35° 97° (E) 19:19:23 437.345
AUBIESAT-1 28 Apr 19:20:57 19:24:18 28° 100° (E) 19:27:29 437.475
PHONESAT 2.4 28 Apr 19:30:20 19:33:21 24° 2° (N) 19:36:21 2401.200-2431.200
CUTE-I 28 Apr 19:53:02 19:57:27 25° 265° (W) 20:01:44 437.470
PRISM 28 Apr 19:54:58 19:59:02 64° 101° (E) 20:03:05 437.425
HO-68 28 Apr 19:55:14 20:00:06 21° 63° (ENE) 20:05:15 435.675
Cubesat XI-IV 28 Apr 20:04:20 20:08:14 20° 267° (W) 20:11:57 437.490
VERMONT LUNAR 28 Apr 20:06:39 20:09:52 41° 18° (NNE) 20:13:06 437.305
DOVE 4 28 Apr 20:15:55 20:17:04 11° 67° (ENE) 20:18:30 437.250
M-CUBED/EXP-1 PRIME 28 Apr 20:16:08 20:19:55 40° 291° (WNW) 20:23:22 437.505
BRITE-PL 28 Apr 20:22:23 20:26:06 34° 73° (ENE) 20:30:01 437.365/2234.400
Cosmos 2499 28 Apr 20:28:28 20:35:43 26° 289° (WNW) 20:42:29 435.465 / 435.565
STRAND 1 28 Apr 20:37:01 20:42:05 64° 285° (WNW) 20:47:07 437.568
SEEDS 28 Apr 20:41:14 20:44:21 21° 71° (ENE) 20:47:36 437.485
SO-50 28 Apr 20:45:10 20:50:09 80° 63° (ENE) 20:55:01 436.795
CUBESAT XI-V 28 Apr 20:49:08 20:52:21 18° 290° (WNW) 20:55:26 437.345
AAUSAT CUBESAT 2 28 Apr 20:50:31 20:53:19 18° 71° (ENE) 20:56:15 437.432
CANX-2 28 Apr 20:54:25 20:58:26 40° 75° (ENE) 21:02:30 2200.000
AUBIESAT-1 28 Apr 20:56:25 20:58:53 16° 296° (WNW) 21:01:06 437.475
CUTE 1.7 + AOD 2 28 Apr 21:02:56 21:07:02 46° 75° (ENE) 21:11:11 437.475
PHONESAT 2.4 28 Apr 21:08:38 21:12:05 43° 18° (NNE) 21:15:31 2401.200-2431.200
